TimePDT,TemperatureF,Dew PointF,Humidity,Sea Level PressureIn,VisibilityMPH,Wind Direction,Wind SpeedMPH,Gust SpeedMPH,PrecipitationIn,Events,Conditions,WindDirDegrees,DateUTC
12:15 AM,51.8,51.8,100,30.37,10.0,Calm,Calm,-,0.00,,Overcast,0,2013-10-05 07:15:00
12:35 AM,51.8,51.8,100,30.38,10.0,Calm,Calm,-,0.00,,Overcast,0,2013-10-05 07:35:00
12:55 AM,51.8,51.8,100,30.38,10.0,Calm,Calm,-,0.00,,Overcast,0,2013-10-05 07:55:00
1:15 AM,51.8,51.8,100,30.37,10.0,Calm,Calm,-,0.00,,Mostly Cloudy,0,2013-10-05 08:15:00
1:35 AM,50.0,50.0,100,30.37,10.0,Calm,Calm,-,0.00,,Mostly Cloudy,0,2013-10-05 08:35:00
1:55 AM,51.8,51.8,100,30.37,10.0,Calm,Calm,-,0.00,,Overcast,0,2013-10-05 08:55:00
2:15 AM,51.8,51.8,100,30.37,10.0,Calm,Calm,-,0.00,,Overcast,0,2013-10-05 09:15:00
2:35 AM,51.8,51.8,100,30.37,9.0,Calm,Calm,-,0.00,,Overcast,0,2013-10-05 09:35:00
2:55 AM,53.6,51.8,94,30.37,10.0,Calm,Calm,-,0.00,,Overcast,0,2013-10-05 09:55:00
3:15 AM,53.6,51.8,94,30.37,10.0,Calm,Calm,-,0.00,,Overcast,0,2013-10-05 10:15:00
3:35 AM,53.6,51.8,94,30.36,10.0,NE,4.6,-,0.00,,Overcast,50,2013-10-05 10:35:00
3:55 AM,53.6,51.8,94,30.36,10.0,Calm,Calm,-,0.00,,Overcast,0,2013-10-05 10:55:00
4:15 AM,53.6,51.8,94,30.35,10.0,East,3.5,-,0.00,,Overcast,80,2013-10-05 11:15:00
4:35 AM,53.6,51.8,94,30.35,10.0,ENE,4.6,-,0.00,,Overcast,70,2013-10-05 11:35:00
4:55 AM,53.6,50.0,88,30.36,10.0,ENE,6.9,-,0.00,,Overcast,60,2013-10-05 11:55:00
5:15 AM,53.6,50.0,88,30.36,10.0,ENE,5.8,-,0.00,,Overcast,60,2013-10-05 12:15:00
5:35 AM,53.6,50.0,88,30.36,10.0,NE,5.8,-,0.00,,Overcast,50,2013-10-05 12:35:00
5:55 AM,53.6,50.0,88,30.36,10.0,East,3.5,-,0.00,,Overcast,90,2013-10-05 12:55:00
6:15 AM,51.8,51.8,100,30.36,9.0,ESE,4.6,-,0.00,,Overcast,110,2013-10-05 13:15:00
6:35 AM,51.8,51.8,100,30.35,9.0,Calm,Calm,-,0.00,,Overcast,0,2013-10-05 13:35:00
6:55 AM,50.0,50.0,100,30.35,9.0,Calm,Calm,-,0.00,,Mostly Cloudy,0,2013-10-05 13:55:00
7:15 AM,50.0,50.0,100,30.35,9.0,NW,3.5,-,0.00,,Mostly Cloudy,310,2013-10-05 14:15:00
7:35 AM,51.8,51.8,100,30.36,8.0,Calm,Calm,-,0.00,,Overcast,0,2013-10-05 14:35:00
7:55 AM,51.8,51.8,100,30.35,7.0,Calm,Calm,-,0.00,,Overcast,0,2013-10-05 14:55:00
8:15 AM,51.8,51.8,100,30.34,8.0,Calm,Calm,-,0.00,,Mostly Cloudy,0,2013-10-05 15:15:00
8:35 AM,53.6,50.0,88,30.35,10.0,Calm,Calm,-,0.00,,Scattered Clouds,0,2013-10-05 15:35:00
8:55 AM,53.6,51.8,94,30.34,10.0,Calm,Calm,-,0.00,,Partly Cloudy,0,2013-10-05 15:55:00
9:15 AM,55.4,51.8,88,30.35,10.0,South,3.5,-,0.00,,Mostly Cloudy,190,2013-10-05 16:15:00
9:35 AM,55.4,51.8,88,30.35,10.0,SSW,3.5,-,0.00,,Overcast,200,2013-10-05 16:35:00
9:55 AM,55.4,53.6,94,30.35,10.0,Calm,Calm,-,0.00,,Overcast,0,2013-10-05 16:55:00
10:15 AM,57.2,53.6,88,30.35,10.0,Calm,Calm,-,0.00,,Overcast,0,2013-10-05 17:15:00
10:35 AM,57.2,50.0,77,30.34,7.0,NE,3.5,-,0.00,,Overcast,40,2013-10-05 17:35:00
10:55 AM,59.0,51.8,77,30.34,6.0,NE,5.8,-,0.00,,Overcast,40,2013-10-05 17:55:00
11:15 AM,59.0,51.8,77,30.34,7.0,North,5.8,-,0.00,,Overcast,10,2013-10-05 18:15:00
11:35 AM,60.8,51.8,72,30.33,6.0,North,4.6,-,0.00,,Mostly Cloudy,360,2013-10-05 18:35:00
11:55 AM,60.8,51.8,72,30.33,6.0,Calm,Calm,-,0.00,,Scattered Clouds,0,2013-10-05 18:55:00
12:15 PM,62.6,50.0,63,30.32,5.0,ENE,4.6,-,0.00,,Partly Cloudy,60,2013-10-05 19:15:00
12:35 PM,62.6,50.0,63,30.31,5.0,NNE,3.5,-,0.00,,Partly Cloudy,20,2013-10-05 19:35:00
12:55 PM,62.6,50.0,63,30.31,4.0,NNE,3.5,-,0.00,,Scattered Clouds,30,2013-10-05 19:55:00
1:15 PM,64.4,51.8,64,30.30,5.0,North,5.8,-,0.00,,Partly Cloudy,10,2013-10-05 20:15:00
1:35 PM,64.4,55.4,73,30.29,3.0,NW,6.9,-,0.00,,Partly Cloudy,310,2013-10-05 20:35:00
2:15 PM,64.4,53.6,68,30.28,7.0,NW,8.1,-,0.00,,Clear,320,2013-10-05 21:15:00
2:35 PM,64.4,55.4,73,30.27,8.0,NNW,8.1,-,0.00,,Clear,330,2013-10-05 21:35:00
2:55 PM,64.4,53.6,68,30.26,7.0,NNW,9.2,-,0.00,,Clear,330,2013-10-05 21:55:00
3:15 PM,64.4,53.6,68,30.25,10.0,NW,10.4,-,0.00,,Clear,320,2013-10-05 22:15:00
3:35 PM,64.4,53.6,68,30.24,6.0,NW,8.1,-,0.00,,Clear,320,2013-10-05 22:35:00
3:55 PM,64.4,53.6,68,30.24,7.0,NW,8.1,-,0.00,,Clear,310,2013-10-05 22:55:00
4:15 PM,64.4,53.6,68,30.23,7.0,NW,9.2,-,0.00,,Clear,310,2013-10-05 23:15:00
4:35 PM,64.4,53.6,68,30.23,7.0,NW,6.9,-,0.00,,Clear,310,2013-10-05 23:35:00
4:55 PM,62.6,53.6,72,30.22,6.0,NW,8.1,-,0.00,,Clear,320,2013-10-05 23:55:00
5:15 PM,62.6,53.6,72,30.21,10.0,NW,9.2,-,0.00,,Clear,320,2013-10-06 00:15:00
5:35 PM,62.6,53.6,72,30.21,9.0,NW,6.9,-,0.00,,Clear,310,2013-10-06 00:35:00
5:55 PM,60.8,53.6,77,30.20,7.0,WNW,6.9,-,0.00,,Clear,300,2013-10-06 00:55:00
6:15 PM,57.2,53.6,88,30.20,9.0,NW,5.8,-,0.00,,Clear,310,2013-10-06 01:15:00
6:35 PM,55.4,53.6,94,30.20,9.0,NW,6.9,-,0.00,,Clear,310,2013-10-06 01:35:00
6:55 PM,55.4,51.8,88,30.20,10.0,WNW,6.9,-,0.00,,Clear,300,2013-10-06 01:55:00
7:15 PM,55.4,51.8,88,30.19,10.0,NW,6.9,-,0.00,,Clear,310,2013-10-06 02:15:00
7:35 PM,53.6,53.6,100,30.19,10.0,NW,8.1,-,0.00,,Clear,310,2013-10-06 02:35:00
7:55 PM,53.6,51.8,94,30.19,10.0,NW,6.9,-,0.00,,Clear,310,2013-10-06 02:55:00
8:15 PM,51.8,51.8,100,30.19,10.0,NW,6.9,-,0.00,,Clear,310,2013-10-06 03:15:00
8:35 PM,51.8,51.8,100,30.19,10.0,NW,5.8,-,0.00,,Clear,310,2013-10-06 03:35:00
8:55 PM,51.8,51.8,100,30.19,10.0,NW,5.8,-,0.00,,Clear,310,2013-10-06 03:55:00
9:15 PM,51.8,51.8,100,30.18,10.0,NW,4.6,-,0.00,,Clear,310,2013-10-06 04:15:00
9:35 PM,51.8,51.8,100,30.18,10.0,Calm,Calm,-,0.00,,Clear,0,2013-10-06 04:35:00
9:55 PM,51.8,51.8,100,30.18,10.0,WNW,4.6,-,0.00,,Clear,300,2013-10-06 04:55:00
10:15 PM,50.0,50.0,100,30.17,10.0,Calm,Calm,-,0.00,,Clear,0,2013-10-06 05:15:00
10:35 PM,50.0,50.0,100,30.17,10.0,Calm,Calm,-,0.00,,Clear,0,2013-10-06 05:35:00
10:55 PM,48.2,48.2,100,30.17,9.0,Calm,Calm,-,0.00,,Clear,0,2013-10-06 05:55:00
11:15 PM,48.2,48.2,100,30.16,1.2,Calm,Calm,-,0.00,,Clear,0,2013-10-06 06:15:00
11:35 PM,50.0,50.0,100,30.16,10.0,Calm,Calm,-,0.00,,Clear,0,2013-10-06 06:35:00
11:55 PM,51.8,51.8,100,30.15,10.0,East,3.5,-,0.00,,Clear,80,2013-10-06 06:55:00